Location: Acton
(51.4942°N, 0.2232°W)
Time: 16:31:25
(UTC+00:00)

Cosmos 2016 Rocket - Pass Details

Date: 18 September 2020
Orbit: 946 x 1001 km, 83.0° (Epoch: 30 October)

Event Time Altitude Azimuth Distance (km) Brightness Sun altitude
Rises 18:29:09 0° 195° (SSW) 3,696 7.1 -4.2°
Reaches altitude 10° 18:31:42 10° 198° (SSW) 2,745 6.5 -4.6°
Maximum altitude 18:37:59 71° 282° (WNW) 1,036 4.4 -5.5°
Drops below altitude 10° 18:44:14 10° 7° (N) 2,725 6.4 -6.5°
Sets 18:46:45 0° 10° (N) 3,668 7.0 -6.9°
